SCP
0 0 0 0 0 0 0 0 0 0 0 0 0 0 0 0 0 0 0 0 0 0 0 0 0 0 0 0 0 0 0 0 0 0 0 0 0 0 0 0 0 0 0 0
0 0 0 0 0 0 0 0 0 0 0 0 0 0 0 0 0 0 0 0 0 0 0 0 0 0 0 0 0 0 0 0 0 0 0 0 0 0 0 0 0 0 0 0
0 0 0 0 0 0 0 0 0 0 0 0 0 0 0 0 0 0 0 0 0 0 0 0 0 0 0 0 0 0 0 0 0 0 0 0 0 0 0 0 0 0 0 0
0 0 0 0 0 0 0 0 0 0 0 0 0 0 0 0 0 0 0 0 0 0 0 0 0 0 0 0 0 0 0 0 0 0 0 0 0 0 0 0 0 0 0 0
0 0 0 0 0 0 0 0 0 0 0 0 0 0 0 0 0 0 0 0 0 0 0 0 0 0 0 0 0 0 0 0 0 0 0 0 0 0 0 0 0 0 0 0
0 0 0 -0 0 0 0 0 0 0 0 0 0 0 0 0 0 0 0 0 0 0 0 0 0 0 0 0 0 0 0 0 0 0 0 0 0 0 0 0 0 0 0 0
0 0 0 0 0 0 0 0 0 0 0 0 0 0 0 0 0 0 0 0 0 0 0 0 0 0 0 0 0 0 0 0 0 0 0 0 0 0 0 0 0 0 0 0
0 0 0 0 0 0 0 0 0 0 0 0 0 0 0 0 0 0 0 0 0 0 0 0 0 0 0 0 0 0 0 0 0 0 0 0 0 0 0 0 0 0 0 0
0 0 0 0 0 0 0 0 0 0 0 0 0 0 0 0 0 0 0 0 0 0 0 0 0 0 0 0 0 0 0 0 0 0 0 0 0 0 0 0 0 0 0 0
0 0 0 0 0 0 0 0 0 0 0 0 0 0 0 0 0 0 0 0 0 0 0 0 0 0 0 0 0 0 0 0 0 0 0 0 0 0 0 0 0 0 0 0
0 0 0 0 0 0 0 0 0 0 0 0 0 0 0 0 0 0 0 0 0 0 0 0 0 0 0 0 0 0 0 0 0 0 0 0 0 0 0 0 0 0 0 0
0 0 0 0 0 0 0 0 0 0 0 0 0 0 0 0 0 0 0 0 0 0 0 0 0 0 0 0 0 0 0 0 0 0 0 0 0 0 0 0 0 0 0 0
0 0 0 0 0 0 0 0 0 0 0 0 0 0 0 0 0 0 0 0 0 0 0 0 0 0 0 0 0 0 0 0 0 0 0 0 0 0 0 0 0 0 0 0
0 0 0 0 0 0 0 0 0 0 0 0 0 0 0 0 0 0 0 0 0 0 0 0 0 0 0 0 0 0 0 0 0 0 0 0 0 0 0 0 0 0 0 0
0 0 0 0 0 0 0 0 0 0 0 0 0 0 0 0 0 0 0 0 0 0 0 0 0 0 0 0 0 0 0 0 0 0 0 0 0 0 0 0 0 0 0 0
0 0 0 0 0 0 0 0 0 0 0 0 0 0 0 0 0 0 0 0 0 0 0 0 0 0 0 0 0 0 0 0 0 0 0 0 0 0 0 0 0 0 0 0
0 0 0 0 0 0 0 0 0 0 0 0 0 0 0 0 0 0 0 0 0 0 0 0 0 0 0 0 0 0 0 0 0 0 0 0 0 0 0 0 0 0 0 0
0 0 0 0 0 0 0 0 0 0 0 0 0 0 0 0 0 0 0 0 0 0 0 0 0 0 0 0 0 0 0 0 0 0 0 0 0 0 0 0 0 0 0 0
0 0 0 0 0 0 0 0 0 0 0 0 0 0 0 0 0 0 0 0 0 0 0 0 0 0 0 0 0 0 0 0 0 0 0 0 0 0 0 0 0 0 0 0
0 0 0 0 0 0 0 0 0 0 0 0 0 0 0 0 0 0 0 0 0 0 0 0 0 0 0 0 0 0 0 0 0 0 0 0 0 0 0 0 0 0 0 0
0 0 0 0 0 0 0 0 0 0 0 0 0 0 0 0 0 0 0 0 0 0 0 0 0 0 0 0 0 0 0 0 0 0 0 0 0 0 0 0 0 0 0 0
0 0 0 0 0 0 0 0 0 0 0 0 0 0 0 0 0 0 0 0 0 0 0 0 0 0 0 0 0 0 0 0 0 0 0 0 0 0 0 0 0 0 0 0
0 0 0 0 0 0 0 0 0 0 0 0 0 0 0 0 0 0 0 0 0 0 0 0 0 0 0 0 0 0 0 0 0 0 0 0 0 0 0 0 0 0 0 0
0 0 0 0 0 0 0 0 0 0 0 0 0 0 0 0 0 0 0 0 0 0 0 0 0 0 0 0 0 0 0 0 0 0 0 0 0 0 0 0 0 0 0 0
0 0 0 0 0 0 0 0 0 0 0 0 0 0 0 0 0 0 0 0 0 0 0 0 0 0 0 0 0 0 0 0 0 0 0 0 0 0 0 0 0 0 0 0
0 0 0 0 0 0 0 0 0 0 0 0 0 0 0 0 0 0 0 0 0 0 0 0 0 0 0 0 0 0 0 0 0 0 0 0 0 0 0 0 0 0 0 0
0 0 0 0 0 0 0 0 0 0 0 0 0 0 0 0 0 0 0 0 0 0 0 0 0 0 0 0 0 0 0 0 0 0 0 0 0 0 0 0 0 0 0 0
Wind_Speed
0 1 1 0 1 1 2 3 4 3 2 3 2 1 2 3 4 5 6 6 6 5 5 5 5 4 3 2 1 1 3 3 4 4 5 5 5 5 5 5 5 5 5 5
2 3 1 1 1 1 1 2 2 1 3 3 1 1 2 3 4 4 5 5 6 6 6 6 5 5 4 3 2 2 3 4 4 4 5 5 6 6 5 5 5 5 5 5
1 3 2 3 3 3 2 2 3 4 4 1 1 1 1 2 3 3 4 5 5 6 5 5 5 5 5 4 2 2 3 3 4 5 6 5 6 6 6 5 5 5 4 4
1 2 2 4 1 2 3 0 0 1 1 1 1 0 2 2 3 4 4 5 5 6 6 6 5 5 5 3 2 3 3 3 4 5 6 5 6 6 5 4 5 4 4 4
2 0 5 4 1 2 2 1 1 1 1 2 1 2 2 4 4 3 4 4 4 5 5 6 6 5 4 3 2 2 3 4 4 5 6 6 7 6 5 4 4 4 4 5
3 1 4 3 1 1 2 2 1 1 1 1 2 1 2 4 4 4 4 4 4 5 4 5 6 5 4 3 2 3 4 4 4 5 6 7 7 6 4 4 5 5 4 5
3 2 6 4 2 2 2 4 1 2 1 1 1 2 3 4 4 4 4 4 5 5 5 5 6 5 4 3 4 4 3 2 3 4 5 6 5 5 5 5 5 5 5 4
4 4 7 1 2 4 4 1 2 2 1 0 1 3 3 4 5 6 6 5 5 5 5 5 5 4 4 4 4 3 2 2 3 4 4 4 5 5 5 6 6 5 5 4
7 6 2 0 2 1 3 3 2 1 0 1 2 3 4 5 5 5 5 5 4 5 6 5 4 4 5 5 4 3 2 2 2 3 3 4 5 6 5 6 5 5 5 5
3 4 2 2 1 1 2 2 2 1 0 1 2 4 5 5 6 6 5 5 5 5 5 6 5 4 4 5 4 2 2 2 2 3 3 4 4 5 6 6 6 6 6 6
3 3 1 3 3 3 2 2 2 1 0 1 2 4 4 5 6 6 5 5 4 5 6 6 6 5 5 4 4 3 3 3 3 3 4 4 5 6 7 7 7 7 6 6
6 6 6 4 4 5 4 2 1 1 1 1 2 4 4 5 5 5 6 5 5 5 6 6 6 6 5 4 4 4 4 3 3 3 3 3 4 4 9 9 12 13 11 9
3 2 3 2 3 3 3 2 1 1 2 2 2 3 4 4 5 5 6 6 6 6 6 6 6 6 5 5 4 4 4 4 3 3 3 3 4 4 4 6 11 13 14 15
3 4 3 3 3 2 2 1 1 0 1 2 3 3 4 5 5 6 6 6 6 6 6 6 6 6 5 5 5 5 5 5 4 4 4 4 4 4 4 4 4 4 9 14
3 3 3 3 3 2 1 1 1 2 3 3 3 4 4 5 6 7 6 6 6 6 6 6 6 7 5 5 5 5 5 4 4 4 4 4 4 4 4 5 5 4 3 5
3 3 3 3 3 2 2 2 2 4 4 4 4 5 5 6 7 7 6 5 5 6 7 6 7 7 6 5 5 5 5 8 7 4 4 4 4 4 4 4 5 4 5 4
6 4 4 4 4 3 3 4 4 5 4 5 6 6 6 6 6 7 7 6 6 7 7 7 8 7 6 5 5 4 4 5 7 5 4 4 4 4 4 4 4 5 5 5
5 4 4 4 4 3 4 4 4 4 5 5 5 5 6 6 7 8 8 7 7 7 7 7 6 6 6 5 5 4 4 4 4 4 4 4 4 4 4 4 4 5 4 5
3 3 2 2 2 3 3 4 4 5 5 5 5 6 6 7 7 7 7 7 7 9 7 5 9 7 6 6 6 4 4 5 5 4 4 6 6 4 4 4 4 4 4 3
2 2 1 1 1 2 3 4 4 5 5 4 5 6 7 8 7 7 7 7 7 7 7 7 7 6 5 6 7 4 5 5 5 4 4 4 4 4 4 4 4 3 3 3
2 1 1 1 2 3 3 4 4 5 6 5 5 7 8 8 7 6 6 8 7 6 6 9 6 5 5 6 7 4 4 5 5 4 4 4 4 4 4 4 3 3 3 2
1 1 1 2 3 4 4 3 4 5 6 6 6 6 7 8 7 6 7 7 7 9 6 4 4 7 8 8 4 4 5 5 4 4 4 4 4 4 4 3 3 2 2 2
1 0 1 2 3 4 5 4 4 5 6 6 7 7 7 7 5 6 7 5 4 9 6 4 8 12 13 6 4 4 5 5 4 4 4 3 3 3 3 3 2 2 2 2
0 1 2 2 2 3 5 5 5 5 6 6 6 7 6 6 5 5 6 10 12 12 6 8 13 13 11 4 4 4 4 4 4 4 3 3 3 3 2 2 2 2 2 2
0 1 2 2 3 3 5 5 6 5 6 5 6 6 5 4 5 6 5 6 10 11 6 8 12 12 7 4 4 4 4 4 4 4 3 3 3 3 2 2 2 2 2 2
1 1 2 2 3 3 4 4 4 5 5 6 6 5 4 4 5 5 5 6 8 10 7 5 5 7 4 4 4 4 4 4 4 3 3 3 3 3 2 2 3 2 2 2
1 2 2 2 2 3 3 4 5 5 5 6 7 6 6 6 5 5 6 5 5 5 5 5 4 4 4 4 4 4 4 3 3 3 3 2 2 2 2 3 2 2 2 2
Wind_Direction
291 302 161 220 252 170 163 174 173 203 213 271 312 5 20 25 33 39 31 24 19 7 354 350 347 341 330 314 282 182 172 179 185 166 149 142 141 140 138 136 136 135 131 130
20 10 51 344 292 223 205 180 181 181 260 281 310 40 34 27 34 32 17 7 360 354 348 340 331 320 311 293 269 212 197 198 178 159 155 156 153 148 142 137 136 136 142 146
338 326 27 306 264 203 195 207 177 203 233 300 357 358 0 11 28 22 359 349 346 340 330 320 314 304 294 282 264 221 210 197 179 169 168 168 159 153 156 155 150 150 156 159
82 42 253 255 318 166 157 116 264 217 316 314 241 156 58 44 24 0 347 341 335 330 325 321 315 310 298 284 253 226 215 202 187 178 175 167 164 169 166 157 161 165 170 171
106 81 287 296 282 155 151 268 287 199 2 6 26 67 22 20 7 342 330 323 317 315 311 315 318 315 309 293 263 235 228 216 199 187 179 174 180 181 172 165 170 172 173 177
124 173 253 263 289 221 115 283 327 118 79 43 73 76 291 341 342 333 330 326 323 322 322 325 324 323 314 296 271 253 245 230 205 191 188 190 190 181 173 173 179 174 180 185
156 227 266 261 279 105 159 249 135 116 96 88 150 220 282 324 333 331 327 324 328 331 330 325 325 330 322 309 283 275 262 226 204 198 197 194 184 175 170 171 171 179 188 196
164 208 253 287 131 167 205 143 124 119 95 59 293 307 320 330 330 333 332 330 331 330 326 326 335 341 329 315 303 294 260 229 215 204 196 185 178 177 174 173 179 189 197 210
191 210 224 211 181 157 146 142 150 148 222 305 306 313 321 322 322 321 321 321 322 317 317 325 337 341 324 314 312 307 286 255 235 211 200 187 183 181 180 185 192 197 203 215
231 252 222 202 175 137 132 145 149 147 216 300 298 306 311 312 315 317 315 315 319 319 318 320 328 329 317 313 310 301 282 265 239 218 212 200 195 190 192 196 201 204 208 216
234 248 218 230 206 177 145 133 128 127 217 285 299 303 306 310 313 315 314 315 317 315 310 310 317 319 320 320 316 304 289 271 250 232 223 216 213 210 208 211 208 205 209 206
212 208 188 213 192 171 166 176 182 212 296 310 301 300 307 305 307 309 309 310 311 312 311 309 312 313 317 319 312 298 290 279 263 249 239 230 228 233 227 225 229 227 221 213
198 160 162 158 146 155 167 187 207 241 276 297 306 304 305 302 304 306 307 311 309 307 304 304 307 309 314 315 306 290 280 277 272 261 250 241 233 234 244 237 235 236 234 232
158 129 139 173 176 163 163 174 177 280 293 293 296 305 305 301 302 305 305 305 304 303 304 305 305 305 311 312 302 293 285 275 268 260 253 246 239 237 237 236 237 240 237 237
176 170 170 158 145 146 153 162 261 289 298 303 298 298 301 300 299 297 298 301 302 302 303 304 301 302 308 306 300 296 290 279 270 265 260 255 246 238 236 237 239 240 230 236
156 132 137 156 184 195 197 222 255 275 285 289 292 292 290 289 291 294 296 299 299 300 301 301 297 298 302 299 295 293 288 284 280 272 267 263 255 246 239 236 236 236 234 230
151 177 192 208 217 221 225 233 245 262 275 280 283 289 293 296 296 295 294 293 285 284 287 287 288 293 293 290 287 285 284 285 285 279 270 266 261 255 251 245 241 241 239 232
182 182 183 194 206 226 247 253 255 263 266 273 283 287 288 288 287 290 293 298 298 293 284 275 279 288 286 285 284 281 280 279 276 274 270 266 265 259 255 253 249 249 251 248
161 164 176 195 209 221 244 258 264 265 271 277 280 280 279 277 277 282 289 293 292 293 290 284 298 297 288 287 291 280 280 281 279 276 273 274 274 266 261 259 256 253 252 245
141 150 171 212 231 232 257 269 276 279 277 276 277 280 283 282 280 282 285 278 268 263 275 287 292 284 280 281 289 275 275 276 277 278 277 273 271 270 266 263 259 259 255 250
154 162 210 272 283 280 275 279 279 281 284 279 272 275 279 284 283 279 281 285 280 269 275 287 287 279 279 280 286 272 269 270 269 267 268 272 275 275 274 270 266 262 260 260
157 188 273 290 295 297 295 289 280 282 288 286 280 277 281 286 287 280 263 260 275 291 291 275 275 281 288 289 272 267 265 266 267 265 262 263 267 270 272 273 273 274 270 265
155 230 286 295 293 294 300 296 289 287 287 287 288 286 282 279 278 280 287 278 277 291 292 274 284 292 296 291 271 267 265 264 264 263 262 262 264 267 269 272 272 273 271 266
137 308 304 306 308 308 307 306 304 295 287 286 283 280 279 286 285 261 261 290 300 300 289 287 295 296 297 286 275 269 263 262 260 258 257 260 261 261 261 264 266 266 266 269
18 322 320 323 316 303 300 308 310 305 301 296 292 287 278 264 270 286 287 287 296 302 295 294 298 299 295 280 276 271 265 261 259 254 245 249 252 255 255 254 253 255 257 259
5 318 300 289 286 294 303 309 308 309 310 309 307 301 294 286 279 282 287 288 289 297 295 289 291 295 287 279 275 274 271 278 284 275 256 250 250 249 249 247 248 247 248 248
355 331 318 314 311 308 306 304 304 306 307 306 306 307 306 304 300 296 295 294 295 294 292 291 289 287 285 282 279 275 271 267 264 263 259 253 250 249 250 248 248 250 251 252